Orr, MN

6:27 PM CDT on March 29, 2017 (GMT -0500)
Orr Regional

Weather History for KORB - February, 2012

Change the Weather History Date:

Friday, February 24, 2012

  Actual Average Record
Temperature  
Mean Temperature 16 °F -  
Max Temperature 21 °F 24 °F 50 °F (1998)
Min Temperature 12 °F 6 °F -25 °F (2003)
Degree Days  
Heating Degree Days 48    
Moisture  
Dew Point 11 °F    
Average Humidity 77    
Maximum Humidity 93    
Minimum Humidity 63    
Precipitation  
Precipitation 0.00 in - - ()
Sea Level Pressure  
Sea Level Pressure 29.71 in    
Wind  
Wind Speed 5 mph (WNW)    
Max Wind Speed 14 mph    
Max Gust Speed 17 mph    
Visibility 8 miles    
Events Snow    
Averages and records for this station are not official NWS values.
T = Trace of Precipitation, MM = Missing Value Source: NWS Daily Summary

Daily Weather History Graph

Daily Weather History Graph

Search for Another Location

Airport or City:

Trip Planner

Search our weather history database for the weather conditions in past years. The results will help you decide how hot, cold, wet, or windy it might be!

Date:

Astronomy

Feb. 24, 2012 Rise Set
Actual Time 7:02 AM CST 5:47 PM CST
Civil Twilight 6:31 AM CST 6:18 PM CST
Nautical Twilight 5:55 AM CST 6:54 PM CST
Astronomical Twilight 5:19 AM CST 7:30 PM CST
Moon 7:40 AM CST (2/24) 9:11 PM CST (2/24)
Length of Visible Light 11h 47m
Length of Day
10h 44m
Waxing Crescent, 8% of the Moon is Illuminated
Feb 24
Waxing Crescent
Feb 29
First Quarter
Mar 8
Full
Mar 14
Last Quarter
Mar 22
New

Hourly Weather History & Observations

Time (CST) Temp. Windchill Dew Point Humidity Pressure Visibility Wind Dir Wind Speed Gust Speed Precip Events Conditions
12:14 AM 21.2 °F - 15.8 °F 80% 29.64 in 10.0 mi Calm Calm - N/A   Overcast
12:34 AM 21.2 °F - 15.8 °F 80% 29.64 in 10.0 mi Calm Calm - N/A   Overcast
12:54 AM 21.2 °F - 15.8 °F 80% 29.64 in 10.0 mi Calm Calm - N/A   Overcast
1:14 AM 21.2 °F 16.4 °F 15.8 °F 80% 29.64 in 7.0 mi South 3.5 mph - N/A Snow Light Snow
1:34 AM 21.2 °F - 15.8 °F 80% 29.64 in 5.0 mi Calm Calm - N/A Snow Light Snow
1:54 AM 21.2 °F 16.4 °F 15.8 °F 80% 29.65 in 3.0 mi South 3.5 mph - N/A Snow Light Snow
2:14 AM 21.2 °F - 17.6 °F 86% 29.65 in 4.0 mi Calm Calm - N/A Snow Light Snow
2:34 AM 21.2 °F - 17.6 °F 86% 29.64 in 7.0 mi Calm Calm - N/A Snow Light Snow
2:54 AM 21.2 °F - 17.6 °F 86% 29.64 in 4.0 mi Calm Calm - N/A Snow Light Snow
3:14 AM 21.2 °F - 17.6 °F 86% 29.63 in 2.5 mi Calm Calm - N/A Snow Light Snow
3:34 AM 21.2 °F 16.4 °F 17.6 °F 86% 29.63 in 3.0 mi WSW 3.5 mph - N/A Snow Light Snow
3:54 AM 21.2 °F - 17.6 °F 86% 29.63 in 4.0 mi Calm Calm - N/A Snow Light Snow
4:14 AM 21.2 °F 16.4 °F 17.6 °F 86% 29.63 in 4.0 mi West 3.5 mph - N/A Snow Light Snow
4:34 AM 21.2 °F 10.9 °F 17.6 °F 86% 29.64 in 7.0 mi WNW 9.2 mph - N/A Snow Light Snow
4:54 AM 19.4 °F 7.9 °F 17.6 °F 93% 29.64 in 10.0 mi WNW 10.4 mph - N/A Snow Light Snow
5:15 AM 19.4 °F 7.9 °F 15.8 °F 86% 29.65 in 10.0 mi WNW 10.4 mph - N/A   Overcast
5:34 AM 19.4 °F 7.9 °F 15.8 °F 86% 29.65 in 10.0 mi WNW 10.4 mph - N/A   Overcast
5:55 AM 19.4 °F 7.9 °F 15.8 °F 86% 29.66 in 10.0 mi WNW 10.4 mph - N/A   Overcast
6:14 AM 17.6 °F 5.7 °F 14.0 °F 86% 29.66 in 10.0 mi WNW 10.4 mph - N/A   Overcast
6:34 AM 17.6 °F 7.3 °F 12.2 °F 79% 29.67 in 10.0 mi WNW 8.1 mph - N/A   Overcast
6:55 AM 15.8 °F 6.1 °F 12.2 °F 86% 29.68 in 10.0 mi West 6.9 mph - N/A   Overcast
7:14 AM 15.8 °F 3.4 °F 10.4 °F 79% 29.68 in 10.0 mi WNW 10.4 mph - N/A   Overcast
7:34 AM 15.8 °F 5.1 °F 10.4 °F 79% 29.69 in 10.0 mi WNW 8.1 mph - N/A Snow Light Snow
7:54 AM 14.0 °F 2.0 °F 10.4 °F 86% 29.70 in 7.0 mi WNW 9.2 mph - N/A Snow Light Snow
8:34 AM 14.0 °F 2.9 °F 8.6 °F 79% 29.71 in 5.0 mi West 8.1 mph - N/A Snow Light Snow
8:54 AM 14.0 °F 2.9 °F 8.6 °F 79% 29.71 in 10.0 mi WNW 8.1 mph - N/A Snow Light Snow
9:14 AM 12.2 °F 0.7 °F 6.8 °F 79% 29.72 in 7.0 mi West 8.1 mph 16.1 mph N/A Snow Light Snow
9:34 AM 12.2 °F 0.7 °F 6.8 °F 79% 29.72 in 10.0 mi WNW 8.1 mph - N/A Snow Light Snow
9:54 AM 14.0 °F 1.2 °F 6.8 °F 73% 29.72 in 10.0 mi WNW 10.4 mph - N/A Snow Light Snow
10:14 AM 14.0 °F 2.0 °F 6.8 °F 73% 29.72 in 10.0 mi West 9.2 mph - N/A   Mostly Cloudy
10:34 AM 15.8 °F 6.1 °F 6.8 °F 68% 29.72 in 10.0 mi WNW 6.9 mph - N/A   Overcast
10:54 AM 15.8 °F 2.1 °F 6.8 °F 68% 29.72 in 10.0 mi NW 12.7 mph - N/A   Overcast
11:15 AM 15.8 °F 3.4 °F 8.6 °F 73% 29.73 in 10.0 mi NW 10.4 mph 17.3 mph N/A   Mostly Cloudy
11:34 AM 17.6 °F 5.7 °F 8.6 °F 68% 29.73 in 10.0 mi NW 10.4 mph - N/A   Overcast
11:55 AM 17.6 °F 5.7 °F 8.6 °F 68% 29.73 in 10.0 mi WNW 10.4 mph - N/A   Overcast
12:14 PM 17.6 °F 5.7 °F 8.6 °F 68% 29.73 in 10.0 mi WNW 10.4 mph 16.1 mph N/A   Overcast
12:34 PM 17.6 °F 5.7 °F 8.6 °F 68% 29.74 in 10.0 mi WNW 10.4 mph - N/A   Overcast
1:08 PM 17.6 °F 5.0 °F 8.6 °F 68% 29.74 in 10.0 mi WNW 11.5 mph 17.3 mph N/A Snow Light Snow
1:17 PM 19.4 °F 8.6 °F 8.6 °F 63% 29.74 in 7.0 mi West 9.2 mph - N/A Snow Light Snow
1:34 PM 17.6 °F 5.7 °F 8.6 °F 68% 29.75 in 10.0 mi WNW 10.4 mph - N/A Snow Light Snow
1:55 PM 17.6 °F 5.7 °F 8.6 °F 68% 29.75 in 5.0 mi WNW 10.4 mph - N/A Snow Light Snow
2:15 PM 17.6 °F 3.7 °F 8.6 °F 68% 29.76 in 7.0 mi WNW 13.8 mph - N/A Snow Light Snow
2:34 PM 17.6 °F 3.7 °F 8.6 °F 68% 29.77 in 7.0 mi WNW 13.8 mph - N/A Snow Light Snow
2:54 PM 17.6 °F 5.7 °F 8.6 °F 68% 29.77 in 4.0 mi NW 10.4 mph 17.3 mph N/A Snow Light Snow
3:14 PM 17.6 °F 5.0 °F 8.6 °F 68% 29.78 in 4.0 mi WNW 11.5 mph 16.1 mph N/A Snow Light Snow
3:54 PM 15.8 °F 3.4 °F 8.6 °F 73% 29.80 in 5.0 mi WNW 10.4 mph - N/A Snow Light Snow
4:14 PM 15.8 °F 4.2 °F 8.6 °F 73% 29.81 in 5.0 mi WNW 9.2 mph - N/A Snow Light Snow
4:34 PM 15.8 °F 5.1 °F 8.6 °F 73% 29.82 in 5.0 mi WNW 8.1 mph - N/A Snow Light Snow
4:54 PM 15.8 °F 2.7 °F 8.6 °F 73% 29.82 in 3.0 mi WNW 11.5 mph - N/A Snow Light Snow
5:14 PM 14.0 °F 1.2 °F 8.6 °F 79% 29.83 in 7.0 mi NW 10.4 mph 16.1 mph N/A   Overcast
5:34 PM 14.0 °F 2.0 °F 8.6 °F 79% 29.85 in 7.0 mi NW 9.2 mph - N/A   Overcast
5:54 PM 12.2 °F -0.2 °F 6.8 °F 79% 29.86 in 10.0 mi NW 9.2 mph 17.3 mph N/A   Overcast
6:14 PM 12.2 °F -0.2 °F 6.8 °F 79% 29.86 in 10.0 mi NW 9.2 mph 16.1 mph N/A   Overcast
6:34 PM 12.2 °F -1.0 °F 6.8 °F 79% 29.88 in 10.0 mi NW 10.4 mph - N/A   Overcast
6:54 PM 12.2 °F 0.7 °F 6.8 °F 79% 29.88 in 7.0 mi WNW 8.1 mph - N/A   Overcast
7:14 PM 12.2 °F 0.7 °F 6.8 °F 79% 29.88 in 7.0 mi WNW 8.1 mph - N/A Snow Light Snow
7:34 PM 12.2 °F 0.7 °F 6.8 °F 79% 29.89 in 7.0 mi WNW 8.1 mph - N/A Snow Light Snow
7:54 PM 12.2 °F 0.7 °F 6.8 °F 79% 29.89 in 5.0 mi WNW 8.1 mph - N/A Snow Light Snow
8:14 PM 12.2 °F 0.7 °F 6.8 °F 79% 29.90 in 5.0 mi WNW 8.1 mph - N/A Snow Light Snow
8:34 PM 12.2 °F 0.7 °F 6.8 °F 79% 29.90 in 4.0 mi WNW 8.1 mph - N/A Snow Light Snow
8:54 PM 12.2 °F 0.7 °F 8.6 °F 85% 29.90 in 3.0 mi WNW 8.1 mph - N/A Snow Light Snow
9:15 PM 12.2 °F 0.7 °F 8.6 °F 85% 29.90 in 3.0 mi WNW 8.1 mph - N/A Snow Light Snow
9:34 PM 12.2 °F 1.7 °F 8.6 °F 85% 29.90 in 3.0 mi WNW 6.9 mph - N/A Snow Light Snow
9:55 PM 12.2 °F -1.0 °F 8.6 °F 85% 29.91 in 4.0 mi WNW 10.4 mph - N/A Snow Light Snow
10:14 PM 12.2 °F 1.7 °F 8.6 °F 85% 29.91 in 5.0 mi WNW 6.9 mph - N/A Snow Light Snow
10:34 PM 12.2 °F 0.7 °F 8.6 °F 85% 29.91 in 5.0 mi WNW 8.1 mph - N/A Snow Light Snow
10:55 PM 12.2 °F 0.7 °F 8.6 °F 85% 29.91 in 7.0 mi WNW 8.1 mph - N/A Snow Light Snow
11:14 PM 12.2 °F 0.7 °F 8.6 °F 85% 29.92 in 10.0 mi WNW 8.1 mph - N/A Snow Light Snow
11:35 PM 12.2 °F 2.9 °F 8.6 °F 85% 29.92 in 10.0 mi WNW 5.8 mph - N/A   Overcast
11:54 PM 10.4 °F 0.8 °F 8.6 °F 92% 29.93 in 10.0 mi WNW 5.8 mph - N/A Snow Light Snow